Location: Miles
(41.4492°N, 81.6087°W)
Time: 08:57:25
(UTC+00:00)

Transit 2A - Pass Details

Date: 17 September 2024
Orbit: 590 x 960 km, 66.7° (Epoch: 09 October)

Event Time Altitude Azimuth Distance (km) Brightness Sun altitude
Rises 08:46:08 0° 327° (NNW) 3,625 9.5 -26.4°
Reaches altitude 10° 08:48:47 10° 325° (NW) 2,652 8.7 -26.0°
Maximum altitude 08:54:55 65° 245° (WSW) 975 6.2 -25.0°
Drops below altitude 10° 09:00:32 10° 164° (SSE) 2,434 8.5 -24.0°
Sets 09:02:52 0° 162° (SSE) 3,308 9.2 -23.6°
